{"data":{"norad_id":68079,"epoch":"2026-09-19T17:53:30.223680Z","epoch_age_seconds":120588,"freshness":"FRESH","line1":"1 68079U 26042L   26262.74548870  .00043851  00000+0  13015-2 0  9997","line2":"2 68079  53.1573 353.2574 0001352  93.2965 266.8192 15.34397344 32079","mean_motion":15.34397344,"eccentricity":0.0001352,"inclination_deg":53.1573,"raan_deg":353.2574,"arg_perigee_deg":93.2965,"mean_anomaly_deg":266.8192,"bstar":0.0013015,"rev_number":3207,"period_min":93.847920529247,"perigee_km":461.78625174245,"apogee_km":463.63601707799,"semimajor_km":6840.8481344102,"source":"CELESTRAK","updated_at":"2026-09-20T09:00:43.779399Z"}}